[[{"header":{"parameterUnit":"m.s-1","parameterCategory":1,"la1":30.2991,"la2":30.254,"lo1":-89.0895,"lo2":-89.0444,"dy":0.0017,"dx":0.0017,"nx":28,"ny":28,"refTime":"2025-03-11T21:00:00:Z","depth":0,"parameterNumber":2,"parameterNumberName":"U-component_of_WINDS"},"data":[0,0,0,0,0,0,0,0,0,0,0,0,0,0,0,0,0,0,0,0,0,0,0,0,0,0,0,0,0,0,0,0,0,0,0,0,0,0,0,0,0,0,0,0,0,0,0,0,0,0,0,0,0,0,0,0,0,0,0.4449,0.4449,0,0.4401,0.4401,0.44,0.4355,0.4355,0.4354,0.4354,0.4306,0.4306,0.4305,0,0,0,0,0,0,0,0,0,0,0,0,0,0.4506,0.4505,0.4449,0.4449,0.4448,0.4401,0.4401,0.44,0.4355,0.4355,0.4354,0.4353,0.4307,0.4306,0.4305,0,0,0,0,0,0,0,0,0,0,0,0,0,0.4472,0.4505,0.445,0.442,0.4417,0.4401,0.44,0.44,0.4355,0.4355,0.4354,0.4353,0.4307,0.4306,0.4305,0.4315,0,0,0.4302,0.4301,0,0,0,0,0,0,0,0,0.4474,0.447,0.4425,0.4422,0.4419,0.4383,0.4403,0.4371,0.4356,0.4379,0.4354,0.4353,0.4333,0.433,0.4322,0.4313,0.4311,0.4301,0.4301,0.43,0.43,0,0,0,0,0,0,0,0.4477,0.4472,0.443,0.4425,0.4421,0.4411,0.4405,0.4397,0.4361,0.4377,0.4373,0.4368,0.4331,0.4324,0.4321,0.431,0.4301,0.43,0.43,0.4299,0.4307,0.4308,0,0,0,0,0,0,0.4483,0.4474,0.4432,0.4429,0.4445,0.441,0.4404,0.4396,0.4361,0.4355,0.4369,0.4366,0.4326,0.4322,0.4319,0.4329,0.43,0.4299,0.4299,0.4306,0.4308,0.4308,0,0,0,0,0,0,0.4484,0.448,0.4434,0.4451,0.4444,0.441,0.4401,0.4395,0.4388,0.4355,0.4349,0.4368,0.4325,0.4321,0.4316,0.4327,0.4299,0.4298,0.4305,0.4307,0.4308,0.435,0,0,0,0,0,0,0.4486,0.448,0.4483,0.4451,0.4443,0.4431,0.4402,0.4395,0.4385,0.4382,0.4352,0.4347,0.4324,0.4318,0.4315,0.4325,0.4297,0.4304,0.4306,0.4308,0.4347,0.4352,0.4357,0,0,0,0,0,0.4488,0.4497,0.4483,0.4479,0.4446,0.4432,0.4427,0.44,0.4386,0.439,0.4369,0.4348,0.4326,0.4318,0.4314,0.4324,0.4304,0.4306,0.4307,0.4345,0.4351,0.4357,0,0,0,0,0,0,0.4532,0.4492,0.4477,0.4475,0.4457,0.4424,0.4427,0.4408,0.4394,0.4391,0.4358,0.4352,0.4352,0.4337,0.4329,0.4333,0.4312,0.4314,0.4342,0.4348,0.4352,0.4356,0.4296,0,0,0,0,0,0.4541,0.4532,0.4498,0.45,0.4492,0.4461,0.4454,0.4435,0.4415,0.4408,0.4386,0.4369,0.4359,0.4352,0.4341,0.4345,0.4339,0.435,0.4355,0.4359,0.436,0.4363,0.4368,0.4315,0.4315,0.4315,0,0,0.456,0.4537,0.4534,0.4508,0.4492,0.4485,0.4455,0.4448,0.4443,0.4407,0.4401,0.4386,0.4364,0.4364,0.4364,0.4352,0.4374,0.4361,0.4365,0.4364,0.4366,0.4371,0.4375,0.4316,0.4316,0.4316,0,0,0.4591,0.4573,0.4573,0.4557,0.4533,0.4513,0.4513,0.4483,0.4471,0.4465,0.4438,0.4432,0.4414,0.44,0.4391,0.4418,0.4399,0.4415,0.444,0.4443,0.4447,0.4451,0.4462,0.4466,0.4417,0.4417,0.4417,0,0.4619,0.4605,0.4576,0.457,0.4561,0.4527,0.4528,0.4514,0.4488,0.4483,0.447,0.4448,0.4431,0.4428,0.4435,0.4428,0.4428,0.4419,0.4449,0.4452,0.4455,0.4465,0.4469,0.4419,0.4419,0.4419,0.4419,0,0.4641,0.4632,0.4635,0.461,0.4601,0.4598,0.4569,0.4564,0.4545,0.4527,0.4522,0.4501,0.4485,0.4482,0.4465,0.4478,0.4472,0.4455,0.4433,0.4463,0.4472,0.4475,0.4423,0.4422,0.4421,0.4421,0,0,0.4697,0.4656,0.4658,0.4647,0.4618,0.4612,0.4609,0.4593,0.4589,0.4572,0.457,0.4556,0.454,0.4529,0.451,0.4512,0.4537,0.4495,0.4494,0.4504,0.4552,0.4565,0.457,0.4524,0.4524,0.4525,0.4554,0,0.4725,0.4716,0.469,0.469,0.4683,0.4652,0.4649,0.4632,0.4615,0.4607,0.4588,0.4579,0.4558,0.4552,0.4553,0.4534,0.4546,0.4531,0.4522,0.4522,0.4529,0.4575,0.4589,0.4617,0.4557,0.4557,0.4558,0,0.4755,0.474,0.474,0.4712,0.4708,0.4706,0.469,0.4682,0.4663,0.4651,0.4639,0.4618,0.4614,0.4594,0.4589,0.458,0.4575,0.4565,0.4565,0.4564,0.4542,0.4576,0.4625,0.463,0.4563,0.4562,0.4562,0,0.4798,0.4777,0.4775,0.4766,0.4734,0.4734,0.4721,0.47,0.4693,0.4679,0.4674,0.466,0.4653,0.4643,0.4619,0.4606,0.4618,0.4595,0.4608,0.4609,0.4612,0.4613,0.4663,0.4608,0.4608,0.4608,0.4608,0,0.4831,0.4832,0.4794,0.4792,0.4793,0.4764,0.4766,0.475,0.4732,0.4728,0.47,0.4697,0.4664,0.4658,0.4639,0.4639,0.4636,0.4626,0.4622,0.4629,0.4631,0.4626,0.4624,0.4609,0.4609,0.4608,0.4608,0,0.4879,0.4853,0.4848,0.4819,0.4811,0.4813,0.4788,0.4787,0.4768,0.4763,0.476,0.4731,0.4723,0.4697,0.4682,0.4669,0.4675,0.4665,0.4682,0.4679,0.4694,0.4693,0.4743,0.4749,0.469,0.469,0.4691,0,0.4902,0.4902,0.4873,0.4868,0.4856,0.4848,0.484,0.4811,0.4805,0.4783,0.4784,0.4773,0.4763,0.475,0.4728,0.4717,0.4707,0.4726,0.4705,0.4714,0.4709,0.471,0.471,0.4731,0.4731,0.4732,0.4732,0,0.4947,0.4934,0.4924,0.4909,0.4901,0.4888,0.4874,0.4872,0.484,0.4834,0.4824,0.4816,0.4801,0.479,0.4776,0.4763,0.4743,0.4739,0.4742,0.475,0.476,0.4756,0.4695,0.4738,0.4738,0.4737,0.4737,0.4737,0.4983,0.4983,0.4962,0.4952,0.4938,0.4926,0.4923,0.4905,0.4896,0.4881,0.4865,0.4857,0.4839,0.4817,0.4806,0.4801,0.479,0.4793,0.4795,0.4796,0.48,0.476,0.4798,0.4798,0.4798,0.4797,0.4797,0,0.5027,0.5013,0.5004,0.4985,0.4977,0.4958,0.4942,0.4938,0.4931,0.4916,0.4906,0.4896,0.4886,0.4864,0.4853,0.4853,0.4843,0.4851,0.4851,0.4849,0.481,0.4809,0.4859,0.4859,0.4859,0.4859,0.4859,0.4859,0.5049,0.5047,0.5033,0.5025,0.501,0.5003,0.4995,0.4984,0.4972,0.4962,0.4954,0.4939,0.4921,0.4909,0.4899,0.4893,0.4891,0.4902,0.4893,0.4857,0.4851,0.4846,0.4845,0.4901,0.4901,0.4932,0.4932,0.4932]},{"header":{"parameterUnit":"m.s-1","parameterCategory":1,"la1":30.2991,"la2":30.254,"lo1":-89.0895,"lo2":-89.0444,"dy":0.0017,"dx":0.0017,"nx":28,"ny":28,"refTime":"2025-03-11T21:00:00:Z","depth":0,"parameterNumber":3,"parameterNumberName":"V-component_of_WINDS"},"data":[0,0,0,0,0,0,0,0,0,0,0,0,0,0,0,0,0,0,0,0,0,0,0,0,0,0,0,0,0,0,0,0,0,0,0,0,0,0,0,0,0,0,0,0,0,0,0,0,0,0,0,0,0,0,0,0,0,0,4.2117,4.2118,0,4.2198,4.2199,4.22,4.221,4.221,4.2209,4.2208,4.2286,4.2288,4.2291,0,0,0,0,0,0,0,0,0,0,0,0,0,4.1968,4.197,4.2117,4.2118,4.2119,4.2198,4.2199,4.22,4.221,4.221,4.2209,4.2208,4.2285,4.2288,4.2291,0,0,0,0,0,0,0,0,0,0,0,0,0,4.2039,4.1971,4.2117,4.2134,4.2136,4.2198,4.2199,4.22,4.2211,4.221,4.2208,4.2207,4.2284,4.2288,4.2292,4.234,0,0,4.2304,4.2306,0,0,0,0,0,0,0,0,4.2035,4.2044,4.213,4.2133,4.2135,4.2193,4.2175,4.2247,4.2211,4.2182,4.2208,4.2207,4.2255,4.2262,4.2279,4.2344,4.2347,4.2305,4.2307,4.2309,4.231,0,0,0,0,0,0,0,4.203,4.2041,4.2149,4.2131,4.2135,4.2136,4.2145,4.2189,4.2224,4.2185,4.2186,4.2195,4.2256,4.2275,4.2281,4.2348,4.2305,4.2308,4.2311,4.2313,4.246,4.2461,0,0,0,0,0,0,4.2022,4.2037,4.2146,4.2151,4.2082,4.214,4.215,4.2176,4.2224,4.223,4.2196,4.2196,4.2269,4.2276,4.2284,4.2346,4.2309,4.2313,4.2315,4.2458,4.246,4.2461,0,0,0,0,0,0,4.2019,4.2032,4.2143,4.2094,4.2109,4.2144,4.2172,4.2178,4.2197,4.2232,4.2238,4.2209,4.2268,4.2278,4.2327,4.2349,4.2315,4.2319,4.2457,4.2459,4.2461,4.247,0,0,0,0,0,0,4.2015,4.2031,4.205,4.2095,4.2111,4.2186,4.2174,4.218,4.2204,4.2204,4.2246,4.2252,4.2268,4.2321,4.2331,4.2354,4.2322,4.2455,4.2458,4.246,4.2467,4.2472,4.2475,0,0,0,0,0,4.201,4.2047,4.2051,4.2064,4.2136,4.2187,4.2196,4.2216,4.2206,4.2226,4.2249,4.2251,4.2345,4.2326,4.2338,4.2362,4.2453,4.2457,4.246,4.2466,4.2471,4.2475,0,0,0,0,0,0,4.2001,4.2053,4.2058,4.2112,4.2145,4.2189,4.2214,4.222,4.2255,4.2253,4.2274,4.2283,4.2332,4.2352,4.233,4.2413,4.2398,4.2404,4.2399,4.2404,4.2408,4.2402,4.2325,0,0,0,0,0,4.2007,4.2045,4.2087,4.2131,4.2148,4.2178,4.22,4.2213,4.2248,4.2261,4.2288,4.232,4.2358,4.2381,4.2417,4.247,4.248,4.2493,4.2497,4.25,4.2505,4.2537,4.2543,4.2472,4.2472,4.2472,0,0,4.2016,4.2049,4.2072,4.213,4.2157,4.2196,4.2189,4.223,4.2259,4.2267,4.2316,4.2337,4.2374,4.2427,4.2451,4.2444,4.2527,4.2504,4.2506,4.2509,4.2541,4.2548,4.2554,4.2474,4.2474,4.2473,0,0,4.2054,4.2083,4.2124,4.2152,4.2195,4.2215,4.2225,4.2269,4.2284,4.2334,4.2342,4.2376,4.2439,4.2466,4.2488,4.2541,4.2544,4.2551,4.2572,4.2603,4.2609,4.2614,4.2635,4.2642,4.2556,4.2556,4.2556,0,4.206,4.2121,4.2143,4.2185,4.2211,4.2223,4.2265,4.229,4.2341,4.2359,4.2351,4.2433,4.2459,4.2519,4.2532,4.2549,4.2562,4.2547,4.2606,4.2612,4.2617,4.2637,4.2644,4.2557,4.2557,4.2556,4.2556,0,4.2127,4.2169,4.2197,4.225,4.2279,4.232,4.2348,4.2374,4.2385,4.2406,4.2458,4.249,4.2534,4.2549,4.2558,4.2611,4.2607,4.2602,4.2588,4.2624,4.2644,4.2651,4.2558,4.2558,4.2557,4.2557,0,0,4.2161,4.2229,4.2239,4.2265,4.2314,4.2346,4.2388,4.2434,4.2457,4.2492,4.2529,4.2584,4.2582,4.2607,4.2619,4.2646,4.2689,4.2639,4.264,4.2649,4.2752,4.2756,4.2765,4.2691,4.2693,4.2694,4.275,0,4.2207,4.2285,4.2308,4.2373,4.2413,4.2426,4.2463,4.2497,4.2519,4.2555,4.2577,4.2617,4.261,4.2626,4.2653,4.2678,4.271,4.2674,4.2726,4.2727,4.2718,4.2774,4.2778,4.2829,4.2757,4.2758,4.2759,0,4.227,4.231,4.2381,4.2429,4.2446,4.2479,4.2525,4.2559,4.2598,4.2612,4.2642,4.2653,4.2698,4.2681,4.2743,4.2718,4.2741,4.2756,4.2759,4.2765,4.2746,4.2784,4.2846,4.2854,4.2771,4.277,4.2769,0,4.2291,4.2362,4.2415,4.2436,4.2492,4.2515,4.2539,4.2578,4.2605,4.2644,4.2662,4.2704,4.2728,4.2761,4.2783,4.2768,4.2845,4.2829,4.2858,4.2857,4.2874,4.2873,4.2942,4.2885,4.2885,4.2885,4.2885,0,4.234,4.2383,4.2425,4.2458,4.2507,4.2532,4.258,4.2604,4.2639,4.2676,4.2688,4.2722,4.2749,4.2787,4.2804,4.2855,4.2864,4.2877,4.2882,4.2877,4.2876,4.2893,4.2891,4.2887,4.2887,4.2886,4.2886,0,4.2371,4.2401,4.246,4.251,4.2523,4.2557,4.26,4.2631,4.2654,4.2701,4.2713,4.2749,4.2794,4.282,4.2876,4.2888,4.2945,4.2946,4.2933,4.2935,4.2964,4.2961,4.3047,4.3061,4.2993,4.2994,4.2995,0,4.2402,4.2436,4.2491,4.2518,4.2543,4.2586,4.2615,4.2641,4.2671,4.272,4.2746,4.2793,4.2833,4.2905,4.2935,4.2978,4.2982,4.3009,4.2989,4.2984,4.2986,4.2984,4.2989,4.3013,4.3014,4.3014,4.3015,0,4.2453,4.2467,4.2509,4.2558,4.2593,4.2632,4.267,4.2691,4.2724,4.2756,4.2805,4.2836,4.2895,4.2942,4.2989,4.3013,4.302,4.3021,4.3031,4.3027,4.3019,4.3027,4.2945,4.3019,4.3019,4.3018,4.3018,4.3018,4.2486,4.2519,4.2564,4.2611,4.2644,4.268,4.2714,4.2742,4.2784,4.2836,4.2849,4.29,4.2941,4.3005,4.303,4.3071,4.3066,4.3078,4.3082,4.3086,4.3088,4.3012,4.3079,4.3079,4.3079,4.3079,4.3078,0,4.2541,4.2571,4.2615,4.267,4.2708,4.2713,4.2757,4.2788,4.2834,4.2872,4.2911,4.2968,4.3015,4.3049,4.3097,4.3123,4.3127,4.3134,4.3134,4.314,4.3088,4.3077,4.313,4.313,4.313,4.313,4.313,4.313,4.2573,4.263,4.2649,4.2722,4.2752,4.2805,4.2829,4.2863,4.2894,4.2958,4.2998,4.3021,4.3059,4.311,4.3153,4.3162,4.3179,4.3187,4.3196,4.3148,4.3143,4.3137,4.3127,4.319,4.319,4.3244,4.3245,4.3245]}]]